Location: Amsterdam
(30.7274°N, 84.4357°W)
Time: 20:38:08
(UTC+00:00)

Injun/Solrad 3 - Pass Details

Date: 20 February 2026
Orbit: 872 x 984 km, 66.8° (Epoch: 8 March)

Event Time Altitude Azimuth Distance (km) Brightness Sun altitude
Rises 03:13:25 0° 314° (NW) 3,618 11.6 -48.4°
Reaches altitude 10° 03:16:42 10° 298° (WNW) 2,688 10.8 -49.1°
Enters shadow 03:17:24 12° 292° (WNW) 2,529 10.6 -49.2°
Maximum altitude 03:20:53 19° 255° (WSW) 2,135 - -49.9°
Drops below altitude 10° 03:25:06 10° 213° (SSW) 2,716 - -50.8°
Sets 03:28:29 0° 196° (SSW) 3,668 - -51.4°
